Location: Hradec Kralove
(50.2170°N, 15.8330°E)
Time: 03:58:41
(UTC+01:00)

N. Korean satellite - Pass Details

Date: 01 December 2022
Orbit: 407 x 441 km, 97.3° (Epoch: 05 February)

Event Time Altitude Azimuth Distance (km) Brightness Sun altitude
Rises 16:51:21 0° 187° (S) 2,441 10.6 -8.4°
Reaches altitude 10° 16:53:29 10° 198° (SSW) 1,586 9.8 -8.7°
Maximum altitude 16:56:35 32° 263° (W) 810 8.5 -9.2°
Drops below altitude 10° 16:59:46 10° 329° (NNW) 1,628 9.3 -9.7°
Sets 17:01:55 0° 339° (NNW) 2,486 10.2 -10.0°
